Weather in Fort Myers

United States     26°38′24″N   81°52′22″W
temp.,
°C
wind,
m/s
gust,
m/s
humid.,
%
clouds,
%
prec.,
mm/h
press.,
hPa
HPBL,
m
18 may, tue
tue1823:00+21e4116481 0.0 1020353
02:00+20ene3879100 0.0 1019206
05:00+19ene3583100 0.0 101984
08:00+23ene510634 0.0 1020521
11:00+29e77385 0.0 10201806
14:00+30e8742100 0.0 10192023
17:00+29e994199 0.0 10171679
20:00+24ene9136555 0.0 1019670
19 may, wed
wed1923:00+22ene6127214 0.0 1020676
02:00+21ene51272100 0.0 1019554
05:00+20ene4107790 0.0 1018275
08:00+22ene41168100 0.0 1020481
11:00+29e894994 0.0 10201774
14:00+28e7949100 0.1 10191700
17:00+29e8943100 0.0 10182162
20:00+25e81157100 0.0 10201254
20 may, thu
thu2023:00+22e71374100 0.0 1020885
02:00+22e71375100 0.0 1019919
05:00+22e6116778 0.0 1019828
08:00+24e7105663 0.0 10211167
11:00+29e994243 0.0 10211886
14:00+28e9104285 0.0 10211856
17:00+30ene10113423 0.0 10192241
20:00+25e9135195 0.0 10201382
21 may, fri
fri2123:00+22e6136828 0.0 1022820
02:00+22e613635 0.0 1021619
05:00+21ene6126533 0.0 1021633
08:00+23ene71167100 0.1 1023909
11:00+29e9113997 0.0 10231956
14:00+32e101032100 0.0 10222438
17:00+31e1093395 0.0 10212570
20:00+25ene7105894 0.0 1022923
22 may, sat
sat2223:00+21ne51274100 0.0 1023596
02:00+18ne498096 0.0 1023195
05:00+17ne478295 0.0 1022129
08:00+21ne476189 0.0 1023257
11:00+29e673538 0.0 10222086
14:00+31e773299 0.0 10212271
17:00+31e673288 0.0 10192320
20:00+26e694239 0.0 1020498